Location: St. Andrews
(45.0670°N, 67.0330°W)
Time: 16:36:17
(UTC-03:00)

Amateur Radio Satellites - All Passes

Search period start: 31 July 2014 16:06
Search period end: 01 August 2014 16:06
Location: St. Andrews, 45.0670°N, 67.0330°W

Satellite Date Start Highest point End Downlink Frequencies (MHz)
Time Altitude Azimuth
Saudisat 1A 31 Jul 16:18:33 16:23:00 86° 55° (NE) 16:27:24 436.775 MHz
JAS-2 31 Jul 16:28:45 16:30:43 11° 49° (NE) 16:32:38 435.800 - 435.900 CW/SSB, 435.910 FM
UOSAT-12 31 Jul 16:35:47 16:39:14 20° 324° (NW) 16:42:43 437.025 FM, 437.400 FM
AO-7 31 Jul 16:36:22 16:44:43 79° 69° (ENE) 16:53:06 29.400 - 29.500 MHz
KITSAT 1 31 Jul 16:47:09 16:54:22 37° 251° (WSW) 17:01:33 435.175 FM
OPAL 31 Jul 16:59:22 17:03:46 29° 98° (E) 17:08:11 ?
TMSAT-1 31 Jul 17:13:21 17:16:33 16° 271° (W) 17:19:45 436.925 FM
RS-15 31 Jul 17:17:48 17:27:15 32° 340° (NNW) 17:36:44 29.354 - 29.394 USB, Beacon 29.352 USB
Uosat F 31 Jul 17:39:07 17:43:38 33° 263° (W) 17:48:11 435.120 FM
JAS-1B 31 Jul 17:42:55 17:47:50 15° 281° (WNW) 17:52:58 435.800 - 435.900 CW/SSB
Saudisat 1A 31 Jul 18:00:25 18:01:54 12° 252° (WSW) 18:03:23 436.775 MHz
JAS-2 31 Jul 18:07:00 18:14:19 50° 68° (ENE) 18:21:05 435.800 - 435.900 CW/SSB, 435.910 FM
Hamsat 31 Jul 18:13:15 18:17:16 48° 72° (ENE) 18:21:20 145.90 MHz
AO-7 31 Jul 18:31:51 18:38:19 24° 268° (W) 18:44:51 29.400 - 29.500 MHz
OPAL 31 Jul 18:38:01 18:42:44 39° 295° (WNW) 18:47:29 ?
STRAND 1 31 Jul 19:27:14 19:31:23 25° 94° (E) 19:35:30 ?
RS-15 31 Jul 19:34:48 19:44:00 29° 15° (NNE) 19:53:18 29.354 - 29.394 USB, Beacon 29.352 USB
Hamsat 31 Jul 19:50:54 19:53:31 16° 269° (W) 19:56:10 145.90 MHz
JAS-2 31 Jul 19:52:20 19:59:25 38° 264° (W) 20:06:03 435.800 - 435.900 CW/SSB, 435.910 FM
SO-67 31 Jul 19:54:04 19:57:31 78° 258° (WSW) 20:01:01 435.3500 MHz FM
SO-50 31 Jul 19:57:21 20:01:16 25° 40° (NE) 20:05:14 436.795 FM
HO-68 31 Jul 20:04:03 20:09:39 26° 55° (NE) 20:15:15 435.675 MHz FM
UKube-1 31 Jul 20:42:21 20:45:15 18° 62° (ENE) 20:48:08 145.840 MHz, 145.915 MHz
STRAND 1 31 Jul 21:05:55 21:10:46 45° 291° (WNW) 21:15:35 ?
Oscar 11 31 Jul 21:23:45 21:27:05 22° 65° (ENE) 21:30:27 145.825 FM, Beacon 2401.500 USB
MaSat-1 31 Jul 21:24:38 21:28:47 62° 113° (ESE) 21:33:35 437.345 MHz
SO-50 31 Jul 21:37:30 21:42:11 59° 239° (WSW) 21:46:54 436.795 FM
UOSAT-12 31 Jul 21:42:11 21:45:56 22° 38° (NE) 21:49:38 437.025 FM, 437.400 FM
RS-15 31 Jul 21:48:17 21:59:11 61° 46° (NE) 22:10:23 29.354 - 29.394 USB, Beacon 29.352 USB
HO-68 31 Jul 21:49:32 21:56:42 75° 255° (WSW) 22:03:54 435.675 MHz FM
FUNcube-1 31 Jul 21:53:59 21:56:51 18° 64° (ENE) 21:59:41 145.950 - 145.970 MHz USB
UKube-1 31 Jul 22:16:48 22:21:04 53° 259° (W) 22:25:22 145.840 MHz, 145.915 MHz
Oscar 11 31 Jul 22:59:04 23:03:04 37° 263° (W) 23:07:06 145.825 FM, Beacon 2401.500 USB
MaSat-1 31 Jul 23:03:13 23:06:38 21° 316° (NW) 23:10:21 437.345 MHz
ISS 31 Jul 23:06:28 23:09:27 31° 140° (SE) 23:12:27 145.800 FM
UOSAT-12 31 Jul 23:21:50 23:26:33 69° 238° (WSW) 23:31:12 437.025 FM, 437.400 FM
FUNcube-1 31 Jul 23:28:48 23:32:56 47° 261° (W) 23:37:01 145.950 - 145.970 MHz USB
HO-68 31 Jul 23:42:17 23:45:35 14° 274° (W) 23:48:53 435.675 MHz FM
RS-15 01 Aug 00:01:02 00:11:16 46° 249° (WSW) 00:21:53 29.354 - 29.394 USB, Beacon 29.352 USB
AO-40 01 Aug 00:02:52 05:26:40 35° 182° (S) 11:29:18 Beacon 2401.320
Sapphire 01 Aug 00:16:01 00:20:37 30° 110° (ESE) 00:25:16 437.095 MHz 1200 baud AX-25 AFSK
ISS 01 Aug 00:42:49 00:46:04 48° 338° (NNW) 00:49:21 145.800 FM
PCSat 01 Aug 00:48:14 00:53:31 58° 116° (ESE) 00:58:51 145.825 MHz
Sapphire 01 Aug 01:58:39 02:03:51 46° 309° (NW) 02:09:05 437.095 MHz 1200 baud AX-25 AFSK
Oscar 19 01 Aug 02:14:37 02:18:48 24° 93° (E) 02:22:59 437.125 CW, 437.150 USB
ISS 01 Aug 02:20:26 02:23:18 25° 358° (N) 02:26:11 145.800 FM
PCSat 01 Aug 02:32:43 02:37:18 27° 316° (NW) 02:41:55 145.825 MHz
Oscar 10/S400 01 Aug 02:37:33 03:22:25 56° 194° (SSW) 11:22:49 145.825 - 145.975 CW/USB, Beacon 145.810 USB
Oscar 16 01 Aug 02:43:03 02:48:02 45° 99° (E) 02:52:58 437.025 USB, Beacon 2401.1428
ITAMSAT 1 01 Aug 03:10:45 03:15:31 36° 97° (E) 03:20:14 435.822 SSB
Uribyol 2 01 Aug 03:29:10 03:34:16 56° 101° (E) 03:39:19 436.500 FM
AO-27 01 Aug 03:30:38 03:35:45 55° 101° (E) 03:40:48 436.795 MHz FM
JAS-1B 01 Aug 03:31:20 03:40:08 45° 94° (E) 03:47:39 435.800 - 435.900 CW/SSB
AO-Echo 01 Aug 03:44:21 03:49:26 78° 103° (ESE) 03:54:19 ?
TMSAT-1 01 Aug 03:45:15 03:49:32 24° 93° (E) 03:53:48 436.925 FM
Sapphire 01 Aug 03:46:27 03:48:42 12° 332° (NNW) 03:50:57 437.095 MHz 1200 baud AX-25 AFSK
Oscar 19 01 Aug 03:53:25 03:58:21 46° 291° (WNW) 04:03:17 437.125 CW, 437.150 USB
ISS 01 Aug 03:57:26 04:00:37 38° 18° (NNE) 04:03:47 145.800 FM
Gurwin Techsat 1B 01 Aug 04:11:10 04:16:24 56° 100° (E) 04:21:36 435.225 FM
OPAL 01 Aug 04:16:13 04:21:05 64° 70° (ENE) 04:26:01 ?
Oscar 16 01 Aug 04:22:55 04:27:08 26° 297° (WNW) 04:31:22 437.025 USB, Beacon 2401.1428
AO-7 01 Aug 04:36:53 04:43:04 22° 91° (E) 04:49:11 29.400 - 29.500 MHz
ITAMSAT 1 01 Aug 04:50:23 04:54:56 32° 295° (WNW) 04:59:27 435.822 SSB
Uribyol 2 01 Aug 05:09:29 05:13:21 22° 299° (WNW) 05:17:12 436.500 FM
AO-27 01 Aug 05:10:58 05:14:53 22° 299° (WNW) 05:18:46 436.795 MHz FM
JAS-1B 01 Aug 05:21:48 05:30:42 49° 297° (WNW) 05:38:22 435.800 - 435.900 CW/SSB
KITSAT 1 01 Aug 05:23:03 05:29:36 28° 106° (ESE) 05:36:11 435.175 FM
TMSAT-1 01 Aug 05:24:37 05:29:41 47° 291° (WNW) 05:34:44 436.925 FM
AO-Echo 01 Aug 05:24:39 05:27:32 16° 302° (WNW) 05:30:22 ?
ISS 01 Aug 05:34:09 05:37:25 47° 216° (SW) 05:40:39 145.800 FM
MaSat-1 01 Aug 05:40:59 05:45:45 32° 51° (NE) 05:50:19 437.345 MHz
Uosat F 01 Aug 05:44:07 05:49:08 65° 102° (ESE) 05:54:05 435.120 FM
Gurwin Techsat 1B 01 Aug 05:51:56 05:55:59 23° 298° (WNW) 06:00:02 435.225 FM
OPAL 01 Aug 05:57:20 06:00:26 17° 267° (W) 06:03:33 ?
AO-7 01 Aug 06:28:25 06:36:48 84° 291° (WNW) 06:45:05 29.400 - 29.500 MHz
Saudisat 1A 01 Aug 06:29:11 06:31:20 14° 109° (ESE) 06:33:30 436.775 MHz
STRAND 1 01 Aug 06:44:53 06:49:44 44° 69° (ENE) 06:54:36 ?
JAS-2 01 Aug 07:00:38 07:05:37 29° 92° (E) 07:10:13 435.800 - 435.900 CW/SSB, 435.910 FM
JAS-1B 01 Aug 07:14:25 07:18:45 14° 321° (NW) 07:22:54 435.800 - 435.900 CW/SSB
KITSAT 1 01 Aug 07:16:13 07:24:19 73° 306° (NW) 07:32:27 435.175 FM
MaSat-1 01 Aug 07:18:14 07:23:13 43° 251° (WSW) 07:27:53 437.345 MHz
Sapphire 01 Aug 07:19:44 07:21:19 11° 26° (NNE) 07:22:53 437.095 MHz 1200 baud AX-25 AFSK
Uosat F 01 Aug 07:24:03 07:27:25 18° 300° (WNW) 07:30:45 435.120 FM
Hamsat 01 Aug 07:32:33 07:36:53 78° 102° (ESE) 07:41:14 145.90 MHz
PCSat 01 Aug 07:51:44 07:55:12 17° 35° (NE) 07:58:38 145.825 MHz
Saudisat 1A 01 Aug 08:05:55 08:10:20 76° 307° (NW) 08:14:47 436.775 MHz
AO-7 01 Aug 08:22:26 08:28:27 23° 312° (NW) 08:34:28 29.400 - 29.500 MHz
STRAND 1 01 Aug 08:24:53 08:29:06 25° 266° (W) 08:33:21 ?
JAS-2 01 Aug 08:45:26 08:50:56 41° 294° (WNW) 08:55:56 435.800 - 435.900 CW/SSB, 435.910 FM
SO-67 01 Aug 08:49:00 08:52:30 84° 282° (WNW) 08:55:58 435.3500 MHz FM
Sapphire 01 Aug 09:01:14 09:06:20 39° 49° (NE) 09:11:24 437.095 MHz 1200 baud AX-25 AFSK
Hamsat 01 Aug 09:10:30 09:12:15 12° 300° (WNW) 09:14:01 145.90 MHz
KITSAT 1 01 Aug 09:14:44 09:21:13 25° 331° (NNW) 09:27:42 435.175 FM
HO-68 01 Aug 09:16:24 09:21:13 19° 89° (E) 09:25:59 435.675 MHz FM
PCSat 01 Aug 09:34:10 09:39:37 72° 56° (ENE) 09:45:01 145.825 MHz
Saudisat 1A 01 Aug 09:48:02 09:50:41 15° 327° (NNW) 09:53:20 436.775 MHz
UKube-1 01 Aug 10:03:40 10:07:04 22° 94° (E) 10:10:27 145.840 MHz, 145.915 MHz
Oscar 11 01 Aug 10:44:33 10:48:29 32° 96° (E) 10:52:23 145.825 FM, Beacon 2401.500 USB
Sapphire 01 Aug 10:44:48 10:49:43 36° 248° (WSW) 10:54:36 437.095 MHz 1200 baud AX-25 AFSK
HO-68 01 Aug 11:02:35 11:09:46 85° 288° (WNW) 11:16:55 435.675 MHz FM
KITSAT 1 01 Aug 11:15:16 11:20:02 16° 1° (N) 11:24:47 435.175 FM
FUNcube-1 01 Aug 11:16:04 11:19:37 26° 95° (E) 11:23:11 145.950 - 145.970 MHz USB
PCSat 01 Aug 11:18:50 11:22:26 18° 255° (WSW) 11:26:01 145.825 MHz
UKube-1 01 Aug 11:39:22 11:43:24 38° 291° (WNW) 11:47:25 145.840 MHz, 145.915 MHz
SO-50 01 Aug 11:54:54 11:58:41 28° 115° (ESE) 12:02:33 436.795 FM
RS-15 01 Aug 12:17:02 12:25:33 27° 103° (ESE) 12:33:55 29.354 - 29.394 USB, Beacon 29.352 USB
Oscar 11 01 Aug 12:20:57 12:24:33 26° 294° (WNW) 12:28:08 145.825 FM, Beacon 2401.500 USB
Oscar 16 01 Aug 12:26:35 12:28:36 12° 55° (NE) 12:30:38 437.025 USB, Beacon 2401.1428
JAS-1B 01 Aug 12:31:30 12:36:16 15° 40° (NE) 12:41:05 435.800 - 435.900 CW/SSB
HO-68 01 Aug 12:51:40 12:56:30 20° 308° (NW) 13:01:20 435.675 MHz FM
FUNcube-1 01 Aug 12:52:22 12:56:01 29° 292° (WNW) 12:59:41 145.950 - 145.970 MHz USB
ITAMSAT 1 01 Aug 12:56:08 12:57:14 11° 54° (NE) 12:58:21 435.822 SSB
KITSAT 1 01 Aug 13:12:08 13:18:46 27° 31° (NNE) 13:25:22 435.175 FM
Uribyol 2 01 Aug 13:12:25 13:15:27 16° 58° (ENE) 13:18:28 436.500 FM
AO-27 01 Aug 13:14:06 13:17:09 16° 58° (ENE) 13:20:13 436.795 MHz FM
AO-Echo 01 Aug 13:22:12 13:25:49 19° 60° (ENE) 13:29:26 ?
Oscar 19 01 Aug 13:33:20 13:38:07 43° 68° (ENE) 13:42:57 437.125 CW, 437.150 USB
SO-50 01 Aug 13:34:51 13:39:06 40° 314° (NW) 13:43:26 436.795 FM
UOSAT-12 01 Aug 13:35:43 13:39:17 23° 112° (ESE) 13:42:55 437.025 FM, 437.400 FM
AO-7 01 Aug 13:53:07 13:54:48 11° 34° (NE) 13:56:29 29.400 - 29.500 MHz
Gurwin Techsat 1B 01 Aug 13:57:06 14:00:19 17° 58° (ENE) 14:03:33 435.225 FM
Oscar 16 01 Aug 14:02:00 14:07:07 80° 74° (ENE) 14:12:16 437.025 USB, Beacon 2401.1428
JAS-1B 01 Aug 14:15:33 14:24:20 49° 62° (ENE) 14:33:39 435.800 - 435.900 CW/SSB
RS-15 01 Aug 14:25:23 14:36:31 87° 305° (NW) 14:47:31 29.354 - 29.394 USB, Beacon 29.352 USB
ITAMSAT 1 01 Aug 14:30:36 14:35:46 67° 72° (ENE) 14:40:57 435.822 SSB
Uribyol 2 01 Aug 14:49:04 14:54:16 81° 256° (WSW) 14:59:29 436.500 FM
AO-27 01 Aug 14:50:47 14:56:01 81° 256° (WSW) 15:01:16 436.795 MHz FM
Saudisat 1A 01 Aug 14:51:52 14:55:30 24° 40° (NE) 14:59:07 436.775 MHz
AO-Echo 01 Aug 14:58:45 15:04:03 70° 258° (WSW) 15:09:21 ?
KITSAT 1 01 Aug 15:07:23 15:15:31 79° 55° (NE) 15:23:35 435.175 FM
TMSAT-1 01 Aug 15:07:46 15:12:48 46° 69° (ENE) 15:17:51 436.925 FM
Oscar 19 01 Aug 15:13:24 15:17:38 26° 266° (W) 15:21:54 437.125 CW, 437.150 USB
UOSAT-12 01 Aug 15:14:36 15:19:07 51° 311° (NW) 15:23:44 437.025 FM, 437.400 FM
SO-50 01 Aug 15:19:44 15:20:57 11° 336° (NNW) 15:22:10 436.795 FM
Uosat F 01 Aug 15:23:07 15:26:11 17° 59° (ENE) 15:29:16 435.120 FM
Gurwin Techsat 1B 01 Aug 15:34:19 15:39:38 80° 256° (WSW) 15:44:59 435.225 FM
AO-7 01 Aug 15:37:43 15:45:15 40° 58° (ENE) 15:52:48 29.400 - 29.500 MHz
Oscar 16 01 Aug 15:44:36 15:47:06 14° 272° (W) 15:49:36 437.025 USB, Beacon 2401.1428
